User: anonymous   Login
Location: Unspecified
(0.0000°N, 0.0000°E)
Time: 21:59:31
(UTC+00:00)
Language:

Azur - Orbit

View from above orbital plane
View from above orbital plane
View from above satellite
View from above satellite

Ground track
Ground track

The orbit data is extracted from the following two-line orbital elements,

1 04221U 69097A   17290.54029910  .00002827  00000-0  13812-3 0  9996
2 04221 102.6807 210.1294 0635991 182.0464 177.8075 14.23470123266581
Epoch (UTC): 17 October 2017 12:58:01
Eccentricity: 0.0635991
inclination: 102.6807°
perigee height: 356 km
apogee height: 1271 km
right ascension of ascending node: 210.1294°
argument of perigee: 182.0464°
revolutions per day: 14.23470123
mean anomaly at epoch: 177.8075°
orbit number at epoch: 26658

The dashed part of the orbit path shows where the satellite is in the earth's shadow,  

DLR